[[{"header":{"parameterUnit":"m.s-1","parameterCategory":1,"la1":30.2991,"la2":30.254,"lo1":-89.0895,"lo2":-89.0444,"dy":0.0017,"dx":0.0017,"nx":28,"ny":28,"refTime":"2024-12-31T09:00:00:Z","depth":0,"parameterNumber":2,"parameterNumberName":"U-component_of_WINDS"},"data":[0,0,0,0,0,0,0,0,0,0,0,0,0,0,0,0,0,0,0,0,0,0,0,0,0,0,0,0,0,0,0,0,0,0,0,0,0,0,0,0,0,0,0,0,0,0,0,0,0,0,0,0,0,0,0,0,0,0,3.3893,3.3894,0,3.3983,3.3984,3.3985,3.3979,3.3977,3.3976,3.3975,3.4067,3.4071,3.4074,0,0,0,0,0,0,0,0,0,0,0,0,0,3.3721,3.3725,3.3893,3.3894,3.3896,3.3982,3.3984,3.3985,3.3979,3.3977,3.3976,3.3974,3.4066,3.407,3.4075,0,0,0,0,0,0,0,0,0,0,0,0,0,3.3802,3.3726,3.3893,3.3903,3.3905,3.3982,3.3984,3.3985,3.3979,3.3977,3.3975,3.3973,3.4065,3.407,3.4075,3.4149,0,0,3.4092,3.4095,0,0,0,0,0,0,0,0,3.3797,3.3808,3.39,3.3902,3.3905,3.3967,3.3957,3.404,3.398,3.3951,3.3975,3.3972,3.4036,3.4043,3.4065,3.4154,3.4158,3.4093,3.4096,3.4099,3.41,0,0,0,0,0,0,0,3.3792,3.3804,3.3929,3.3902,3.3904,3.3904,3.3913,3.3973,3.4003,3.3953,3.3953,3.3964,3.4036,3.4059,3.4067,3.4159,3.4093,3.4098,3.4101,3.4103,3.4319,3.4321,0,0,0,0,0,0,3.3784,3.38,3.3926,3.3931,3.3845,3.3909,3.3919,3.3949,3.4003,3.4009,3.3965,3.3963,3.4051,3.406,3.407,3.4164,3.4099,3.4104,3.4107,3.4316,3.4319,3.4322,0,0,0,0,0,0,3.378,3.3795,3.3922,3.3866,3.3882,3.3914,3.3948,3.3952,3.3975,3.4012,3.4017,3.3983,3.405,3.4062,3.4131,3.4167,3.4106,3.4111,3.4314,3.4317,3.4321,3.4351,0,0,0,0,0,0,3.3775,3.3794,3.3821,3.3866,3.3885,3.3981,3.395,3.3955,3.3984,3.3982,3.403,3.4036,3.4049,3.4123,3.4136,3.4174,3.4116,3.4311,3.4315,3.432,3.4347,3.4355,3.4362,0,0,0,0,0,3.3769,3.3825,3.3822,3.3838,3.392,3.3983,3.3993,3.4007,3.3987,3.4016,3.4041,3.4034,3.416,3.413,3.4145,3.4185,3.4308,3.4314,3.4319,3.4343,3.4353,3.4362,0,0,0,0,0,0,3.3782,3.3831,3.3829,3.3901,3.3938,3.3981,3.4018,3.4017,3.406,3.4057,3.4072,3.4083,3.4153,3.4175,3.414,3.4262,3.4232,3.4241,3.4245,3.4255,3.4262,3.4257,3.412,0,0,0,0,0,3.3794,3.384,3.388,3.394,3.3959,3.3985,3.4013,3.4021,3.406,3.4076,3.4105,3.4144,3.4193,3.4224,3.4271,3.4349,3.4362,3.4384,3.4392,3.4398,3.4407,3.4455,3.4467,3.434,3.434,3.434,0,0,3.3818,3.385,3.3878,3.3944,3.3973,3.4023,3.3998,3.4051,3.4089,3.4084,3.4152,3.4175,3.4219,3.4294,3.4329,3.4315,3.4444,3.4405,3.441,3.4415,3.4462,3.4474,3.4484,3.4343,3.4343,3.4342,0,0,3.3888,3.3915,3.3971,3.4001,3.4047,3.4065,3.4078,3.4123,3.4138,3.4206,3.4205,3.4251,3.4333,3.4367,3.4395,3.4481,3.4479,3.4496,3.4537,3.4584,3.4594,3.4603,3.4638,3.465,3.4503,3.4503,3.4504,0,3.3913,3.3987,3.3999,3.4054,3.4084,3.4082,3.4141,3.417,3.4228,3.425,3.4233,3.4341,3.437,3.4455,3.4477,3.4498,3.4517,3.4492,3.4591,3.46,3.4609,3.4643,3.4656,3.4506,3.4505,3.4505,3.4505,0,3.4017,3.4068,3.4108,3.4166,3.42,3.4256,3.4279,3.4313,3.4318,3.4339,3.4411,3.4446,3.4502,3.4522,3.4527,3.461,3.4601,3.4587,3.4558,3.4623,3.4656,3.4668,3.4509,3.4508,3.4507,3.4507,0,0,3.4098,3.4164,3.4179,3.4208,3.4259,3.43,3.4357,3.4412,3.4443,3.4483,3.4535,3.4606,3.4595,3.4627,3.4636,3.4676,3.4749,3.4658,3.466,3.4678,3.4848,3.4861,3.4875,3.4746,3.4749,3.4751,3.4846,0,3.4177,3.4278,3.4293,3.4383,3.4433,3.4433,3.4484,3.4522,3.4543,3.459,3.4613,3.4665,3.4645,3.4665,3.4704,3.4731,3.4784,3.4724,3.4797,3.48,3.479,3.4891,3.4904,3.4992,3.4858,3.486,3.4861,0,3.4282,3.4328,3.4423,3.4472,3.4494,3.4539,3.4593,3.4636,3.4681,3.4694,3.4731,3.4736,3.4798,3.4764,3.4852,3.4812,3.4842,3.486,3.4864,3.4874,3.4837,3.4909,3.502,3.5035,3.4881,3.4879,3.4878,0,3.4338,3.4423,3.4492,3.4516,3.4573,3.4605,3.4631,3.4673,3.4707,3.4754,3.4778,3.4831,3.4861,3.4904,3.4925,3.4897,3.5013,3.498,3.5028,3.5028,3.5055,3.5054,3.5177,3.5068,3.5068,3.5068,3.5067,0,3.4427,3.4486,3.4519,3.4562,3.463,3.4646,3.4714,3.4738,3.4777,3.4827,3.4829,3.4876,3.4898,3.4949,3.4965,3.5038,3.5051,3.5065,3.507,3.5067,3.5066,3.509,3.5086,3.5071,3.507,3.507,3.5069,0,3.4502,3.4525,3.4602,3.465,3.4664,3.4712,3.4755,3.4798,3.4819,3.4882,3.4898,3.4932,3.4993,3.5016,3.509,3.5101,3.5187,3.5184,3.5172,3.5175,3.5224,3.5221,3.537,3.5393,3.5264,3.5266,3.5266,0,3.4559,3.4605,3.4659,3.4693,3.472,3.4773,3.4808,3.4827,3.4864,3.4921,3.4958,3.5018,3.5068,3.5166,3.5198,3.5255,3.5257,3.5305,3.5265,3.5264,3.5263,3.5262,3.5269,3.5314,3.5315,3.5316,3.5317,0,3.4659,3.4669,3.4719,3.4775,3.4818,3.4862,3.4906,3.4933,3.4959,3.5001,3.5063,3.5102,3.5179,3.524,3.53,3.5328,3.5329,3.5329,3.5344,3.5344,3.5337,3.5347,3.5197,3.5326,3.5325,3.5324,3.5324,3.5323,3.473,3.4773,3.4819,3.4876,3.4911,3.4953,3.4997,3.5025,3.5077,3.5141,3.5149,3.5217,3.5264,3.5345,3.5376,3.5431,3.5419,3.5439,3.5445,3.5451,3.5457,3.5325,3.5441,3.5441,3.5441,3.5441,3.544,0,3.4835,3.4865,3.4917,3.4979,3.5025,3.502,3.5069,3.5109,3.5169,3.5212,3.5262,3.5336,3.5396,3.5434,3.5496,3.5533,3.5535,3.5549,3.5549,3.5556,3.5462,3.5445,3.5547,3.5547,3.5547,3.5547,3.5547,3.5547,3.4895,3.4969,3.4985,3.5078,3.5108,3.5175,3.5204,3.5244,3.5279,3.5362,3.5412,3.5436,3.5479,3.5544,3.5601,3.5611,3.5635,3.5651,3.5661,3.5573,3.5562,3.5552,3.5536,3.5655,3.5655,3.5751,3.5751,3.5752]},{"header":{"parameterUnit":"m.s-1","parameterCategory":1,"la1":30.2991,"la2":30.254,"lo1":-89.0895,"lo2":-89.0444,"dy":0.0017,"dx":0.0017,"nx":28,"ny":28,"refTime":"2024-12-31T09:00:00:Z","depth":0,"parameterNumber":3,"parameterNumberName":"V-component_of_WINDS"},"data":[0,0,0,0,0,0,0,0,0,0,0,0,0,0,0,0,0,0,0,0,0,0,0,0,0,0,0,0,0,0,0,0,0,0,0,0,0,0,0,0,0,0,0,0,0,0,0,0,0,0,0,0,0,0,0,0,0,0,-0.9047,-0.9046,0,-0.8989,-0.8988,-0.8988,-0.8992,-0.8993,-0.8993,-0.8994,-0.8932,-0.893,-0.8927,0,0,0,0,0,0,0,0,0,0,0,0,0,-0.9159,-0.9157,-0.9047,-0.9046,-0.9045,-0.8989,-0.8988,-0.8988,-0.8992,-0.8993,-0.8994,-0.8995,-0.8933,-0.893,-0.8927,0,0,0,0,0,0,0,0,0,0,0,0,0,-0.9107,-0.9157,-0.9047,-0.904,-0.9039,-0.8989,-0.8988,-0.8987,-0.8991,-0.8993,-0.8994,-0.8995,-0.8934,-0.893,-0.8927,-0.8878,0,0,-0.8915,-0.8914,0,0,0,0,0,0,0,0,-0.911,-0.9103,-0.9042,-0.9041,-0.9039,-0.8999,-0.9005,-0.8951,-0.8991,-0.9009,-0.8994,-0.8996,-0.8953,-0.8948,-0.8934,-0.8875,-0.8872,-0.8915,-0.8913,-0.8911,-0.891,0,0,0,0,0,0,0,-0.9113,-0.9105,-0.9024,-0.9041,-0.904,-0.904,-0.9034,-0.8995,-0.8975,-0.9008,-0.9008,-0.9001,-0.8952,-0.8938,-0.8933,-0.8871,-0.8915,-0.8912,-0.8909,-0.8908,-0.8774,-0.8773,0,0,0,0,0,0,-0.9119,-0.9108,-0.9026,-0.9022,-0.9079,-0.9037,-0.9031,-0.9011,-0.8975,-0.8971,-0.9,-0.9002,-0.8943,-0.8937,-0.893,-0.8874,-0.8911,-0.8908,-0.8906,-0.8776,-0.8774,-0.8773,0,0,0,0,0,0,-0.9121,-0.9111,-0.9028,-0.9065,-0.9055,-0.9034,-0.9012,-0.9009,-0.8994,-0.8969,-0.8966,-0.8989,-0.8944,-0.8936,-0.8892,-0.8872,-0.8906,-0.8903,-0.8777,-0.8775,-0.8773,-0.8759,0,0,0,0,0,0,-0.9124,-0.9112,-0.9093,-0.9065,-0.9053,-0.899,-0.901,-0.9007,-0.8988,-0.8989,-0.8958,-0.8954,-0.8944,-0.8898,-0.8889,-0.8867,-0.89,-0.8779,-0.8776,-0.8774,-0.8761,-0.8757,-0.8753,0,0,0,0,0,-0.9128,-0.909,-0.9092,-0.9082,-0.9029,-0.8989,-0.8982,-0.8973,-0.8986,-0.8968,-0.8953,-0.8955,-0.8876,-0.8893,-0.8883,-0.886,-0.878,-0.8777,-0.8774,-0.8763,-0.8758,-0.8753,0,0,0,0,0,0,-0.9114,-0.9086,-0.9088,-0.9039,-0.9017,-0.899,-0.8966,-0.8967,-0.894,-0.8942,-0.8931,-0.8924,-0.8881,-0.8866,-0.8886,-0.8814,-0.883,-0.8824,-0.8825,-0.882,-0.8816,-0.882,-0.8897,0,0,0,0,0,-0.9106,-0.9077,-0.9053,-0.9012,-0.9002,-0.8986,-0.8968,-0.8964,-0.894,-0.893,-0.8911,-0.8887,-0.8857,-0.8838,-0.8808,-0.876,-0.8754,-0.8739,-0.8735,-0.8732,-0.8728,-0.8704,-0.8698,-0.8763,-0.8763,-0.8763,0,0,-0.9087,-0.9068,-0.905,-0.9009,-0.8991,-0.8962,-0.8977,-0.8944,-0.8923,-0.8924,-0.8883,-0.8869,-0.8842,-0.8797,-0.8776,-0.8783,-0.8709,-0.8728,-0.8726,-0.8723,-0.8701,-0.8695,-0.8689,-0.8761,-0.8761,-0.8761,0,0,-0.9038,-0.902,-0.8986,-0.8969,-0.8943,-0.8934,-0.8926,-0.89,-0.8891,-0.885,-0.8852,-0.8826,-0.8773,-0.8755,-0.8739,-0.8689,-0.8691,-0.868,-0.8658,-0.8635,-0.863,-0.8626,-0.861,-0.8604,-0.8675,-0.8675,-0.8675,0,-0.9018,-0.8974,-0.8968,-0.8937,-0.892,-0.8922,-0.8889,-0.8872,-0.8837,-0.8825,-0.8834,-0.8772,-0.8754,-0.8706,-0.8694,-0.868,-0.8672,-0.8683,-0.8632,-0.8627,-0.8623,-0.8608,-0.8602,-0.8674,-0.8674,-0.8674,-0.8675,0,-0.8952,-0.8922,-0.8898,-0.8867,-0.8848,-0.8815,-0.8804,-0.8785,-0.8784,-0.8774,-0.8734,-0.8712,-0.8681,-0.8669,-0.8665,-0.8622,-0.8628,-0.8634,-0.865,-0.8616,-0.8602,-0.8596,-0.8673,-0.8673,-0.8673,-0.8674,0,0,-0.889,-0.886,-0.8851,-0.8839,-0.8813,-0.8789,-0.8758,-0.8729,-0.8714,-0.8691,-0.8665,-0.8623,-0.8631,-0.8613,-0.8608,-0.8588,-0.8553,-0.8598,-0.8597,-0.8592,-0.8507,-0.8503,-0.8496,-0.8555,-0.8554,-0.8553,-0.851,0,-0.884,-0.8786,-0.8781,-0.8732,-0.8706,-0.8711,-0.8684,-0.8665,-0.8656,-0.8632,-0.8621,-0.8593,-0.8604,-0.8594,-0.8574,-0.8562,-0.8536,-0.8564,-0.8531,-0.853,-0.8539,-0.8488,-0.8483,-0.8443,-0.8504,-0.8503,-0.8502,0,-0.8774,-0.8752,-0.8702,-0.8683,-0.8672,-0.8648,-0.8623,-0.86,-0.858,-0.8575,-0.8557,-0.8556,-0.8525,-0.8543,-0.8501,-0.8521,-0.8507,-0.8499,-0.8498,-0.8495,-0.8514,-0.8485,-0.843,-0.8424,-0.8493,-0.8494,-0.8494,0,-0.8737,-0.8694,-0.866,-0.8649,-0.8625,-0.8609,-0.8598,-0.858,-0.8564,-0.8542,-0.8533,-0.8507,-0.8493,-0.8474,-0.8466,-0.848,-0.8426,-0.8442,-0.8422,-0.8422,-0.841,-0.8411,-0.8353,-0.84,-0.84,-0.84,-0.84,0,-0.8682,-0.8651,-0.8643,-0.8622,-0.8589,-0.8585,-0.8552,-0.8542,-0.8526,-0.8503,-0.8505,-0.8484,-0.8475,-0.8453,-0.8447,-0.8415,-0.8408,-0.8404,-0.8403,-0.8404,-0.8405,-0.8395,-0.8398,-0.8398,-0.8399,-0.8399,-0.8399,0,-0.8634,-0.8627,-0.859,-0.8573,-0.8568,-0.8544,-0.8529,-0.8509,-0.8502,-0.8474,-0.8467,-0.8455,-0.8429,-0.8421,-0.8388,-0.8385,-0.8348,-0.8349,-0.8356,-0.8356,-0.8337,-0.8339,-0.8271,-0.8263,-0.8314,-0.8313,-0.8313,0,-0.8599,-0.8577,-0.8558,-0.8544,-0.8534,-0.8511,-0.8496,-0.8492,-0.8477,-0.8455,-0.8438,-0.8413,-0.8393,-0.8352,-0.834,-0.8317,-0.8318,-0.8296,-0.8314,-0.8318,-0.832,-0.8322,-0.8321,-0.8292,-0.8292,-0.8291,-0.8291,0,-0.854,-0.8539,-0.8519,-0.8498,-0.8481,-0.8464,-0.8448,-0.8436,-0.843,-0.8413,-0.8388,-0.8373,-0.8342,-0.8318,-0.8295,-0.8284,-0.8287,-0.8286,-0.828,-0.8282,-0.8287,-0.8286,-0.8348,-0.8287,-0.8287,-0.8288,-0.8288,-0.8288,-0.8499,-0.8481,-0.8466,-0.8444,-0.8432,-0.8418,-0.84,-0.8392,-0.8371,-0.8348,-0.8347,-0.832,-0.8304,-0.8274,-0.8263,-0.8242,-0.8249,-0.824,-0.8238,-0.8236,-0.8236,-0.8291,-0.8238,-0.8238,-0.8238,-0.8238,-0.8238,0,-0.8442,-0.8434,-0.8414,-0.8393,-0.8376,-0.8383,-0.8366,-0.8351,-0.8329,-0.8314,-0.8296,-0.8269,-0.8247,-0.8235,-0.8214,-0.82,-0.8201,-0.8194,-0.8196,-0.8194,-0.823,-0.8238,-0.8194,-0.8194,-0.8194,-0.8194,-0.8194,-0.8194,-0.841,-0.838,-0.8378,-0.8343,-0.8335,-0.8311,-0.8302,-0.8289,-0.8278,-0.8249,-0.8231,-0.8225,-0.8212,-0.819,-0.8171,-0.8168,-0.8161,-0.8154,-0.8152,-0.8186,-0.8191,-0.8195,-0.8203,-0.8152,-0.8152,-0.8117,-0.8117,-0.8117]}]]